Location: Wald
(31.7579°N, 86.6655°W)
Time: 21:14:30
(UTC+00:00)

Intercosmos 25 Rocket - Pass Details

Date: 14 July 2020
Orbit: 434 x 2985 km, 82.6° (Epoch: 13 August)

Event Time Altitude Azimuth Distance (km) Brightness Sun altitude
Rises 09:53:34 0° 347° (NNW) 2,890 7.3 -11.5°
Reaches altitude 10° 09:55:24 10° 343° (NNW) 2,155 6.6 -11.2°
Maximum altitude 10:00:02 60° 264° (W) 1,062 4.5 -10.3°
Drops below altitude 10° 10:07:43 10° 187° (S) 3,525 7.0 -9.0°
Sets 10:11:26 0° 184° (S) 4,919 7.8 -8.3°
